Location: Newark
(39.0622°N, 106.5590°E)
Time: 22:34:31
(UTC+00:00)

Vanguard 2 Rocket - Visible Passes

Search period start: 22 January 2020 00:00
Search period end: 01 February 2020 00:00
Orbit: 554 x 3326 km, 32.9° (Epoch: 22 January)

Date Brightness Start Highest point End Pass type
(mag) Time Alt. Az. Time Alt. Az. Time Alt. Az.
22 Jan 7.9 22:53:50 10° SW 22:58:27 41° SSE 23:05:45 10° E visible
23 Jan 7.8 21:57:40 23° S 21:59:20 29° SSE 22:04:39 10° E visible
24 Jan 8.7 21:01:42 16° SE 21:01:42 16° SE 21:03:42 10° ESE visible
24 Jan 7.6 23:07:49 10° WSW 23:12:27 47° S 23:19:51 10° E visible
25 Jan 7.4 22:11:30 27° SSW 22:13:15 37° SSE 22:18:55 10° E visible
26 Jan 8.2 21:15:28 23° SE 21:15:28 23° SE 21:18:21 10° ESE visible
26 Jan 7.6 23:21:56 10° WSW 23:26:32 48° S 23:33:52 10° ESE visible
27 Jan 7.2 22:25:14 26° SW 22:27:17 42° S 22:33:04 10° ESE visible
28 Jan 7.7 21:29:09 30° SE 21:29:09 30° SE 21:32:41 10° ESE visible
28 Jan 7.7 23:36:10 10° WSW 23:40:41 42° S 23:47:43 10° ESE visible
29 Jan 7.2 22:38:52 21° WSW 22:41:23 42° S 22:47:05 10° ESE visible
30 Jan 7.2 21:42:46 36° SSE 21:42:46 36° SSE 21:46:51 10° ESE visible
31 Jan 9.1 20:46:40 12° ESE 20:46:40 12° ESE 20:46:59 10° ESE visible
31 Jan 7.4 22:52:28 15° WSW 22:55:32 36° S 23:00:56 10° ESE visible
